TimeEST,TemperatureF,Dew PointF,Humidity,Sea Level PressureIn,VisibilityMPH,Wind Direction,Wind SpeedMPH,Gust SpeedMPH,PrecipitationIn,Events,Conditions,WindDirDegrees,DateUTC
12:53 AM,53.1,46.0,77,30.14,10.0,WNW,11.5,-,N/A,,Clear,300,2012-12-30 05:53:00
1:53 AM,51.1,46.0,83,30.15,10.0,WNW,10.4,-,N/A,,Clear,300,2012-12-30 06:53:00
2:53 AM,50.0,45.0,83,30.17,10.0,NW,11.5,-,N/A,,Clear,310,2012-12-30 07:53:00
3:53 AM,48.9,43.0,80,30.19,10.0,NW,13.8,-,N/A,,Clear,320,2012-12-30 08:53:00
4:53 AM,46.9,42.1,83,30.20,10.0,NW,12.7,-,N/A,,Partly Cloudy,310,2012-12-30 09:53:00
5:12 AM,46.4,41.0,81,30.21,10.0,NW,12.7,20.7,N/A,,Mostly Cloudy,320,2012-12-30 10:12:00
5:25 AM,46.4,39.2,76,30.22,10.0,North,17.3,27.6,N/A,,Scattered Clouds,350,2012-12-30 10:25:00
5:53 AM,44.1,37.0,76,30.23,10.0,NW,13.8,-,N/A,,Clear,320,2012-12-30 10:53:00
6:13 AM,44.6,35.6,71,30.24,10.0,NNW,13.8,24.2,N/A,,Mostly Cloudy,330,2012-12-30 11:13:00
6:53 AM,43.0,36.0,76,30.25,10.0,NW,9.2,-,N/A,,Overcast,310,2012-12-30 11:53:00
7:53 AM,43.0,36.0,76,30.28,10.0,NW,12.7,-,N/A,,Mostly Cloudy,320,2012-12-30 12:53:00
8:13 AM,44.6,35.6,71,30.29,10.0,NW,11.5,-,N/A,,Clear,320,2012-12-30 13:13:00
8:53 AM,46.0,36.0,68,30.30,10.0,NNW,12.7,-,N/A,,Clear,330,2012-12-30 13:53:00
9:53 AM,51.1,39.9,66,30.31,10.0,NNW,11.5,-,N/A,,Partly Cloudy,340,2012-12-30 14:53:00
10:53 AM,53.1,44.1,71,30.32,10.0,NNW,16.1,21.9,N/A,,Scattered Clouds,340,2012-12-30 15:53:00
10:55 AM,53.6,44.6,72,30.32,10.0,NNW,13.8,-,N/A,,Scattered Clouds,340,2012-12-30 15:55:00
11:53 AM,57.0,46.0,67,30.31,10.0,North,17.3,-,N/A,,Mostly Cloudy,350,2012-12-30 16:53:00
12:53 PM,59.0,48.0,67,30.29,10.0,North,16.1,23.0,N/A,,Mostly Cloudy,360,2012-12-30 17:53:00
1:53 PM,59.0,48.9,69,30.28,10.0,NNW,16.1,23.0,N/A,,Mostly Cloudy,340,2012-12-30 18:53:00
2:53 PM,60.1,48.9,67,30.28,10.0,NNW,10.4,-,N/A,,Mostly Cloudy,340,2012-12-30 19:53:00
3:53 PM,61.0,48.9,64,30.29,10.0,North,13.8,20.7,N/A,,Overcast,10,2012-12-30 20:53:00
4:53 PM,62.1,51.1,67,30.29,10.0,North,8.1,-,N/A,,Overcast,360,2012-12-30 21:53:00
5:53 PM,63.0,51.1,65,30.29,10.0,NNE,8.1,17.3,N/A,,Mostly Cloudy,30,2012-12-30 22:53:00
6:53 PM,64.0,51.1,63,30.30,10.0,NNE,9.2,-,N/A,,Overcast,30,2012-12-30 23:53:00
7:53 PM,63.0,50.0,63,30.30,10.0,NE,10.4,-,N/A,,Overcast,40,2012-12-31 00:53:00
8:53 PM,64.0,51.1,63,30.31,10.0,NE,5.8,-,N/A,,Overcast,50,2012-12-31 01:53:00
9:53 PM,64.0,50.0,60,30.32,10.0,ENE,11.5,-,N/A,,Mostly Cloudy,70,2012-12-31 02:53:00
10:53 PM,64.0,50.0,60,30.32,10.0,ENE,6.9,-,N/A,,Mostly Cloudy,60,2012-12-31 03:53:00
11:53 PM,64.0,52.0,65,30.31,10.0,ENE,9.2,-,N/A,,Overcast,70,2012-12-31 04:53:00